THY854 LTFM-LTAN

Flight info

Callsign THY854
Flight time N/A
Altitude 37000
Route RATVU1E/36 RATVU UT35 DOKUB UT76 KFK UB545 HISAR
Aircraft A319/M-SDE3FGHIRWY/LB1

Departure

Time N/A
Airport İstanbul Airport (LTFM)

Arrival

Time 2026-04-30 18:09
Airport Konya Airport (LTAN)
Time Latitude Longitude Altitude Speed Heading
2026-04-30 17:39 38.86373 30.03815 37090 ft 493 kts 104°
2026-04-30 17:42 38.81179 30.47276 37078 ft 493 kts 107°
2026-04-30 17:42 38.77048 30.58922 36306 ft 465 kts 125°
2026-04-30 17:43 38.73204 30.65293 35847 ft 445 kts 134°
2026-04-30 17:44 38.67119 30.74169 34683 ft 445 kts 134°
2026-04-30 17:44 38.60997 30.83122 32852 ft 445 kts 134°
2026-04-30 17:46 38.50976 30.97774 30656 ft 432 kts 133°
2026-04-30 17:47 38.43153 31.09064 29024 ft 420 kts 134°
2026-04-30 17:48 38.35523 31.19979 27358 ft 407 kts 134°
2026-04-30 17:48 38.29949 31.27939 26132 ft 398 kts 134°
2026-04-30 17:49 38.22706 31.38260 24550 ft 386 kts 134°
2026-04-30 17:50 38.15660 31.48266 23023 ft 375 kts 134°
2026-04-30 17:51 38.11333 31.56315 21878 ft 373 kts 107°
2026-04-30 17:52 38.10178 31.65952 20740 ft 368 kts 98°
2026-04-30 17:53 38.08443 31.81805 18865 ft 360 kts 99°
2026-04-30 17:54 38.07024 31.94205 17390 ft 354 kts 99°
2026-04-30 17:55 38.05612 32.06436 15925 ft 347 kts 99°
2026-04-30 17:56 38.04215 32.18409 14429 ft 341 kts 99°
2026-04-30 17:57 38.03178 32.27259 13314 ft 336 kts 99°
2026-04-30 17:58 38.02145 32.35980 12168 ft 333 kts 99°
2026-04-30 17:59 38.00778 32.47428 10685 ft 326 kts 98°
2026-04-30 18:00 38.01804 32.57805 9602 ft 298 kts 34°
2026-04-30 18:00 38.07333 32.61156 8609 ft 292 kts 24°
2026-04-30 18:01 38.10999 32.63355 7888 ft 292 kts 25°
2026-04-30 18:02 38.16261 32.66588 7499 ft 255 kts 26°
2026-04-30 18:02 38.20520 32.66056 7225 ft 218 kts 291°
2026-04-30 18:03 38.18387 32.62420 7247 ft 197 kts 181°
2026-04-30 18:04 38.14729 32.62828 6894 ft 158 kts 169°
2026-04-30 18:05 38.10595 32.62099 6073 ft 151 kts 213°
2026-04-30 18:06 38.07123 32.59448 4854 ft 147 kts 197°
2026-04-30 18:07 38.03193 32.57949 4105 ft 146 kts 196°
2026-04-30 18:08 38.00280 32.56851 3590 ft 145 kts 197°
2026-04-30 18:09 37.97435 32.55773 3380 ft 46 kts 196°
2026-04-30 18:10 37.97143 32.56058 3366 ft 13 kts 98°
2026-04-30 18:11 37.97453 32.56208 3370 ft 17 kts 17°
2026-04-30 18:11 37.97827 32.56347 3378 ft 22 kts 17°
2026-04-30 18:12 37.98286 32.56522 3384 ft 18 kts 16°
2026-04-30 18:13 37.98550 32.56621 3387 ft 17 kts 17°
2026-04-30 18:13 37.98535 32.56997 3372 ft 20 kts 105°
2026-04-30 18:14 37.98438 32.57402 3357 ft 13 kts 104°
2026-04-30 18:15 37.98534 32.57550 3351 ft 0 kts 107°